Weather History for Ann Arbor, MI

Change the Weather History Date:

Thursday, February 13, 2014

  Actual Average Record
Temperature  
Mean Temperature 14 °F -  
Max Temperature 28 °F 31 °F 43 °F (2011)
Min Temperature 0 °F 16 °F 0 °F (2014)
Degree Days  
Heating Degree Days 51    
Moisture  
Dew Point 7 °F    
Average Humidity 65    
Maximum Humidity 95    
Minimum Humidity 41    
Precipitation  
Precipitation 0.00 in - - ()
Sea Level Pressure  
Sea Level Pressure 29.86 in    
Wind  
Wind Speed 4 mph (SE)    
Max Wind Speed 9 mph    
Max Gust Speed -    
Visibility 9 miles    
Events      
Averages and records for this station are not official NWS values.
T = Trace of Precipitation, MM = Missing Value Source: NWS Daily Summary

Daily Weather History Graph

Daily Weather History Graph

Search for Another Location

Airport:

Trip Planner

Search our weather history database for the weather conditions in past years. The results will help you decide how hot, cold, wet, or windy it might be!

Date:

Astronomy

Feb. 13, 2014 Rise Set
Actual Time 7:33 AM EST 6:05 PM EST
Civil Twilight 7:05 AM EST 6:33 PM EST
Nautical Twilight 6:32 AM EST 7:06 PM EST
Astronomical Twilight 5:59 AM EST 7:39 PM EST
Moon 5:12 PM EST (2/13) 6:26 AM EST (2/13)
Length of Visible Light 11h 28m
Length of Day
10h 31m
Waxing Gibbous, 98% of the Moon is Illuminated
Feb 13
Waxing Gibbous
Feb 14
Full
Feb 22
Last Quarter
Mar 1
New
Mar 8
First Quarter

Hourly Weather History & Observations

Time (EST) Temp. Windchill Dew Point Humidity Pressure Visibility Wind Dir Wind Speed Gust Speed Precip Events Conditions
12:53 AM 15.1 °F 9.4 °F 6.1 °F 68% 30.10 in 10.0 mi SE 3.5 mph - N/A   Overcast
1:53 AM 14.0 °F 5.1 °F 6.1 °F 71% 30.09 in 10.0 mi SE 5.8 mph - N/A   Overcast
2:53 AM 14.0 °F - 6.1 °F 71% 30.07 in 10.0 mi Calm Calm - N/A   Overcast
3:53 AM 14.0 °F 5.1 °F 6.1 °F 71% 30.04 in 10.0 mi North 5.8 mph - N/A   Clear
4:53 AM 6.1 °F - 1.9 °F 83% 30.06 in 9.0 mi Calm Calm - N/A   Overcast
5:53 AM 3.0 °F - -0.0 °F 87% 30.04 in 8.0 mi Calm Calm - N/A   Partly Cloudy
6:53 AM -0.9 °F - -2.9 °F 91% 30.03 in 6.0 mi Calm Calm - N/A   Clear
7:53 AM -0.0 °F - -2.9 °F 88% 30.01 in 4.0 mi Calm Calm - N/A   Clear
8:53 AM 5.0 °F - 3.9 °F 95% 29.99 in 4.0 mi Calm Calm - N/A   Clear
9:53 AM 18.0 °F 8.7 °F 8.1 °F 65% 29.96 in 9.0 mi ESE 6.9 mph - N/A   Clear
10:53 AM 23.0 °F 17.0 °F 7.0 °F 50% 29.94 in 10.0 mi ESE 4.6 mph - N/A   Clear
11:53 AM 26.1 °F 19.4 °F 9.0 °F 49% 29.90 in 10.0 mi East 5.8 mph - N/A   Clear
12:53 PM 28.0 °F 22.8 °F 8.1 °F 43% 29.85 in 10.0 mi East 4.6 mph - N/A   Clear
1:53 PM 28.9 °F 20.4 °F 8.1 °F 41% 29.80 in 10.0 mi SSE 9.2 mph - N/A   Clear
2:53 PM 28.0 °F 20.0 °F 8.1 °F 43% 29.78 in 10.0 mi South 8.1 mph - N/A   Clear
3:53 PM 27.0 °F 18.0 °F 8.1 °F 45% 29.76 in 10.0 mi SSE 9.2 mph - N/A   Clear
4:53 PM 25.0 °F 17.1 °F 8.1 °F 49% 29.75 in 10.0 mi South 6.9 mph - N/A   Clear
5:53 PM 23.0 °F 13.9 °F 8.1 °F 53% 29.72 in 10.0 mi SE 8.1 mph - N/A   Scattered Clouds
6:53 PM 21.9 °F 13.4 °F 9.0 °F 58% 29.70 in 10.0 mi SE 6.9 mph - N/A   Overcast
7:53 PM 21.9 °F 14.5 °F 8.1 °F 55% 29.70 in 10.0 mi South 5.8 mph - N/A   Overcast
8:53 PM 19.9 °F 12.1 °F 10.9 °F 68% 29.65 in 10.0 mi SE 5.8 mph - 0.00 in   Overcast
9:53 PM 19.9 °F 13.4 °F 10.9 °F 68% 29.62 in 10.0 mi SE 4.6 mph - N/A   Overcast
10:53 PM 19.9 °F 13.4 °F 12.0 °F 71% 29.57 in 10.0 mi SE 4.6 mph - N/A   Overcast
11:53 PM 19.9 °F 13.4 °F 12.0 °F 71% 29.54 in 10.0 mi South 4.6 mph - N/A   Overcast